Data No, UTC Date,UTC Time,Latitude,Longitude,Course(deg),Temp(degC),Sal(psu)
495,2021/5/14,8:14,42-36.91N,141-37.06E,210,7.541,31.9183
496,2021/5/14,8:15,42-36.64N,141-36.85E,207,7.436,31.929
497,2021/5/14,8:16,42-36.38N,141-36.82E,181,8.168,31.9481
498,2021/5/14,8:17,42-36.10N,141-36.82E,179,7.637,31.9113
499,2021/5/14,8:18,42-35.82N,141-36.84E,177,7.571,31.7847
500,2021/5/14,8:19,42-35.54N,141-36.85E,178,7.601,31.8375
501,2021/5/14,8:20,42-35.30N,141-36.85E,179,7.689,31.8693
502,2021/5/14,8:21,42-35.01N,141-36.85E,179,7.515,31.8592
503,2021/5/14,8:22,42-34.73N,141-36.85E,180,7.705,31.8783
504,2021/5/14,8:23,42-34.45N,141-36.85E,180,8.224,31.8658
505,2021/5/14,8:24,42-34.17N,141-36.84E,180,8.167,31.7765
506,2021/5/14,8:25,42-33.89N,141-36.84E,180,8.224,31.647
507,2021/5/14,8:26,42-33.61N,141-36.83E,180,8.208,31.6271
508,2021/5/14,8:27,42-33.32N,141-36.83E,180,8.105,31.6161
509,2021/5/14,8:28,42-33.05N,141-36.83E,180,8.028,31.617
510,2021/5/14,8:29,42-32.77N,141-36.83E,179,8.101,31.6662
511,2021/5/14,8:30,42-32.49N,141-36.83E,179,8.2,31.7013
512,2021/5/14,8:31,42-32.21N,141-36.83E,180,8.017,31.6795
513,2021/5/14,8:32,42-31.93N,141-36.83E,180,7.674,31.7003
514,2021/5/14,8:33,42-31.66N,141-36.83E,179,7.356,31.7758
515,2021/5/14,8:34,42-31.38N,141-36.84E,179,7.393,31.8864
516,2021/5/14,8:35,42-31.10N,141-36.84E,179,7.533,31.9987
517,2021/5/14,8:36,42-30.83N,141-36.84E,179,7.338,32.001
518,2021/5/14,8:37,42-30.55N,141-36.83E,180,7.664,32.0146
519,2021/5/14,8:38,42-30.27N,141-36.83E,180,7.788,31.9867
520,2021/5/14,8:39,42-30.00N,141-36.83E,180,7.792,31.8979
521,2021/5/14,8:40,42-29.72N,141-36.83E,180,7.525,31.8509
522,2021/5/14,8:41,42-29.44N,141-36.82E,180,6.818,31.828
523,2021/5/14,8:42,42-29.16N,141-36.82E,180,6.724,32.0017
524,2021/5/14,8:43,42-28.89N,141-36.81E,180,6.741,32.168
525,2021/5/14,8:44,42-28.61N,141-36.80E,181,6.856,32.2145
526,2021/5/14,8:45,42-28.33N,141-36.79E,181,6.8,32.2017
527,2021/5/14,8:46,42-28.06N,141-36.78E,181,6.996,32.1685
528,2021/5/14,8:47,42-27.78N,141-36.77E,181,7.417,32.1339
529,2021/5/14,8:48,42-27.51N,141-36.76E,181,7.16,32.0191
530,2021/5/14,8:49,42-27.21N,141-36.75E,181,6.979,31.9027
531,2021/5/14,8:50,42-26.91N,141-36.73E,182,7.077,31.9362
532,2021/5/14,8:51,42-26.64N,141-36.72E,181,7.513,31.9616
533,2021/5/14,8:52,42-26.36N,141-36.71E,181,7.526,31.9239
534,2021/5/14,8:53,42-26.09N,141-36.70E,181,7.142,31.7904
535,2021/5/14,8:54,42-25.81N,141-36.68E,182,6.808,31.7945
536,2021/5/14,8:55,42-25.53N,141-36.67E,181,7.344,31.9137
537,2021/5/14,8:56,42-25.26N,141-36.66E,180,7.386,31.9347
538,2021/5/14,8:57,42-24.97N,141-36.65E,181,8.05,31.8688
539,2021/5/14,8:58,42-24.70N,141-36.64E,181,8.04,31.7371
540,2021/5/14,8:59,42-24.42N,141-36.63E,181,7.961,31.5792
541,2021/5/14,9:00,42-24.16N,141-36.62E,181,7.948,31.5382
542,2021/5/14,9:01,42-23.90N,141-36.61E,180,7.843,31.5544
543,2021/5/14,9:02,42-23.58N,141-36.60E,180,7.834,31.5908
544,2021/5/14,9:03,42-23.30N,141-36.60E,180,7.827,31.6147
545,2021/5/14,9:04,42-23.02N,141-36.59E,180,7.775,31.6666
546,2021/5/14,9:05,42-22.73N,141-36.58E,180,7.769,31.6918
547,2021/5/14,9:06,42-22.46N,141-36.57E,180,7.71,31.7227
548,2021/5/14,9:07,42-22.18N,141-36.56E,181,7.408,31.7643
549,2021/5/14,9:08,42-21.90N,141-36.55E,181,7.49,31.7767
550,2021/5/14,9:09,42-21.62N,141-36.54E,181,7.331,31.8509
551,2021/5/14,9:10,42-21.34N,141-36.53E,181,7.215,31.8817
552,2021/5/14,9:11,42-21.06N,141-36.52E,181,7.18,31.9539
553,2021/5/14,9:12,42-20.81N,141-36.51E,181,7.705,31.9795
554,2021/5/14,9:13,42-20.54N,141-36.50E,181,7.757,31.953
555,2021/5/14,9:14,42-20.25N,141-36.49E,183,7.712,31.8185
556,2021/5/14,9:15,42-19.94N,141-36.46E,183,7.304,31.7568
557,2021/5/14,9:16,42-19.67N,141-36.43E,184,6.809,31.7972
558,2021/5/14,9:17,42-19.39N,141-36.39E,185,6.316,31.8914
559,2021/5/14,9:18,42-19.16N,141-36.36E,185,6.247,32.1181
560,2021/5/14,9:19,42-18.89N,141-36.33E,184,6.113,32.2435
561,2021/5/14,9:20,42-18.61N,141-36.30E,185,6.243,32.3167
562,2021/5/14,9:21,42-18.30N,141-36.26E,184,6.273,32.3429
563,2021/5/14,9:22,42-18.02N,141-36.23E,184,6.198,32.2883
564,2021/5/14,9:23,42-17.75N,141-36.19E,184,6.222,32.2614
565,2021/5/14,9:24,42-17.51N,141-36.16E,184,6.574,32.2157
566,2021/5/14,9:25,42-17.23N,141-36.14E,182,7.035,32.1704
567,2021/5/14,9:26,42-16.96N,141-36.12E,181,6.837,31.9954
568,2021/5/14,9:27,42-16.68N,141-36.11E,181,6.65,31.8653
569,2021/5/14,9:28,42-16.41N,141-36.10E,181,6.774,31.8512
570,2021/5/14,9:29,42-16.14N,141-36.10E,181,6.807,31.869
571,2021/5/14,9:30,42-15.85N,141-36.08E,182,7.058,31.8695
572,2021/5/14,9:31,42-15.58N,141-36.07E,181,7.351,31.8179
573,2021/5/14,9:32,42-15.30N,141-36.06E,181,7.59,31.7262
574,2021/5/14,9:33,42-15.03N,141-36.05E,181,7.473,31.6092
575,2021/5/14,9:34,42-14.76N,141-36.04E,181,7.372,31.5362
576,2021/5/14,9:35,42-14.48N,141-36.03E,181,7.158,31.5646
577,2021/5/14,9:36,42-14.20N,141-36.01E,181,6.973,31.6411
578,2021/5/14,9:37,42-13.93N,141-36.01E,181,7.008,31.7143
579,2021/5/14,9:38,42-13.65N,141-36.00E,181,6.963,31.7835
580,2021/5/14,9:39,42-13.37N,141-35.98E,181,6.959,31.8172
581,2021/5/14,9:40,42-13.09N,141-35.97E,181,6.96,31.8239
582,2021/5/14,9:41,42-12.82N,141-35.96E,181,6.889,31.8024
583,2021/5/14,9:42,42-12.54N,141-35.95E,181,6.846,31.8386
584,2021/5/14,9:43,42-12.26N,141-35.94E,181,6.884,31.8672
585,2021/5/14,9:44,42-11.98N,141-35.93E,181,6.795,31.8729
586,2021/5/14,9:45,42-11.70N,141-35.92E,181,6.942,31.8705
587,2021/5/14,9:46,42-11.43N,141-35.91E,181,7.176,31.8585
588,2021/5/14,9:47,42-11.15N,141-35.91E,181,7.622,31.8151
589,2021/5/14,9:48,42-10.87N,141-35.90E,180,7.912,31.7045
590,2021/5/14,9:49,42-10.59N,141-35.89E,181,8.175,31.5589
591,2021/5/14,9:50,42-10.31N,141-35.88E,181,7.986,31.4359
592,2021/5/14,9:51,42-10.04N,141-35.87E,181,7.988,31.3797
593,2021/5/14,9:52,42-09.76N,141-35.86E,181,8.044,31.4089
594,2021/5/14,9:53,42-09.48N,141-35.85E,181,8.057,31.402
595,2021/5/14,9:54,42-09.21N,141-35.84E,181,8.221,31.4486
596,2021/5/14,9:55,42-08.93N,141-35.83E,181,8.269,31.447
597,2021/5/14,9:56,42-08.65N,141-35.82E,181,8.255,31.4366
598,2021/5/14,9:57,42-08.37N,141-35.81E,181,8.197,31.4351
599,2021/5/14,9:58,42-08.10N,141-35.80E,181,8.1,31.4567
600,2021/5/14,9:59,42-07.78N,141-35.78E,181,8.088,31.5137
601,2021/5/14,10:00,42-07.50N,141-35.77E,181,8.067,31.5541
602,2021/5/14,10:01,42-07.22N,141-35.76E,181,8.067,31.582
603,2021/5/14,10:02,42-06.95N,141-35.75E,181,8.038,31.6124
604,2021/5/14,10:03,42-06.66N,141-35.74E,181,8.099,31.6237
605,2021/5/14,10:04,42-06.39N,141-35.72E,181,8.129,31.6486
606,2021/5/14,10:05,42-06.11N,141-35.71E,181,8.102,31.656
607,2021/5/14,10:06,42-05.83N,141-35.70E,181,7.911,31.6427
608,2021/5/14,10:07,42-05.55N,141-35.68E,181,7.84,31.6789
609,2021/5/14,10:08,42-05.27N,141-35.67E,181,7.73,31.7479
610,2021/5/14,10:09,42-05.00N,141-35.66E,181,7.733,31.7939
611,2021/5/14,10:10,42-04.71N,141-35.64E,181,7.749,31.833
612,2021/5/14,10:11,42-04.46N,141-35.63E,181,7.729,31.8287
613,2021/5/14,10:12,42-04.16N,141-35.62E,181,7.657,31.8344
614,2021/5/14,10:13,42-03.88N,141-35.61E,181,7.648,31.8527
615,2021/5/14,10:14,42-03.60N,141-35.60E,181,7.555,31.8682
616,2021/5/14,10:15,42-03.32N,141-35.58E,181,7.581,31.8887
617,2021/5/14,10:16,42-03.04N,141-35.57E,181,7.657,31.9074
618,2021/5/14,10:17,42-02.79N,141-35.56E,181,7.73,31.8903
619,2021/5/14,10:18,42-02.52N,141-35.55E,181,7.717,31.8496
620,2021/5/14,10:19,42-02.21N,141-35.54E,180,7.773,31.8303
621,2021/5/14,10:20,42-01.92N,141-35.53E,180,7.805,31.8012
622,2021/5/14,10:21,42-01.67N,141-35.53E,181,7.437,31.7811
623,2021/5/14,10:22,42-01.40N,141-35.52E,181,7.324,31.7987
624,2021/5/14,10:23,42-01.08N,141-35.51E,181,7.295,31.8858
625,2021/5/14,10:24,42-00.81N,141-35.50E,181,7.233,31.9413
626,2021/5/14,10:25,42-00.52N,141-35.49E,181,7.294,31.9618
627,2021/5/14,10:26,42-00.25N,141-35.48E,180,7.528,31.979
628,2021/5/14,10:27,41-59.97N,141-35.48E,180,7.628,31.9365
629,2021/5/14,10:28,41-59.69N,141-35.47E,180,7.744,31.8621
630,2021/5/14,10:29,41-59.42N,141-35.47E,180,7.852,31.7985
631,2021/5/14,10:30,41-59.13N,141-35.47E,180,7.957,31.7185
632,2021/5/14,10:31,41-58.86N,141-35.46E,180,7.83,31.6739
633,2021/5/14,10:32,41-58.58N,141-35.45E,181,7.728,31.6625
634,2021/5/14,10:33,41-58.29N,141-35.45E,180,7.709,31.6807
635,2021/5/14,10:34,41-58.02N,141-35.44E,180,7.696,31.7285
636,2021/5/14,10:35,41-57.74N,141-35.44E,180,7.773,31.7421
637,2021/5/14,10:36,41-57.46N,141-35.44E,180,7.871,31.7533
638,2021/5/14,10:37,41-57.19N,141-35.41E,180,7.783,31.7345
639,2021/5/14,10:38,41-56.93N,141-35.45E,180,7.498,31.7158
640,2021/5/14,10:39,41-56.66N,141-35.45E,180,7.725,31.7778
641,2021/5/14,10:40,41-56.38N,141-35.44E,180,7.811,31.8127
642,2021/5/14,10:41,41-56.09N,141-35.44E,180,8.158,31.7833
643,2021/5/14,10:42,41-55.78N,141-35.45E,180,8.076,31.7053
644,2021/5/14,10:43,41-55.50N,141-35.45E,180,8.034,31.6184
645,2021/5/14,10:44,41-55.23N,141-35.45E,180,7.998,31.6177
646,2021/5/14,10:45,41-54.98N,141-35.45E,180,7.936,31.6439
647,2021/5/14,10:46,41-54.71N,141-35.45E,179,7.916,31.676
648,2021/5/14,10:47,41-54.39N,141-35.45E,180,7.985,31.6937
649,2021/5/14,10:48,41-54.11N,141-35.46E,181,7.973,31.702
650,2021/5/14,10:49,41-53.83N,141-35.47E,181,7.742,31.6963
651,2021/5/14,10:50,41-53.55N,141-35.47E,181,7.624,31.7394
652,2021/5/14,10:51,41-53.27N,141-35.48E,181,7.583,31.8063
653,2021/5/14,10:52,41-53.04N,141-35.46E,179,7.65,31.8562
654,2021/5/14,10:53,41-52.75N,141-35.46E,179,7.744,31.868
655,2021/5/14,10:54,41-52.47N,141-35.46E,179,7.714,31.8513
656,2021/5/14,10:55,41-52.19N,141-35.46E,179,7.523,31.831
657,2021/5/14,10:56,41-51.91N,141-35.46E,180,7.479,31.856
658,2021/5/14,10:57,41-51.63N,141-35.46E,180,7.566,31.896
659,2021/5/14,10:58,41-51.34N,141-35.45E,181,7.527,31.9122
660,2021/5/14,10:59,41-51.06N,141-35.44E,180,7.535,31.8814
661,2021/5/14,11:00,41-50.77N,141-35.44E,179,7.486,31.8792
662,2021/5/14,11:01,41-50.49N,141-35.44E,181,7.447,31.8872
663,2021/5/14,11:02,41-50.20N,141-35.43E,181,7.374,31.8917
664,2021/5/14,11:03,41-49.89N,141-35.42E,180,7.258,31.9102
665,2021/5/14,11:04,41-49.58N,141-35.42E,179,7.26,31.9143
666,2021/5/14,11:05,41-49.33N,141-35.42E,180,7.15,31.9562
667,2021/5/14,11:06,41-49.05N,141-35.42E,180,7.002,31.953
668,2021/5/14,11:07,41-48.77N,141-35.41E,180,7.073,31.996
669,2021/5/14,11:08,41-48.48N,141-35.41E,179,7.306,32.022
670,2021/5/14,11:09,41-48.20N,141-35.41E,179,7.508,31.982
671,2021/5/14,11:10,41-47.91N,141-35.42E,179,7.903,31.9059
672,2021/5/14,11:11,41-47.63N,141-35.42E,178,8.11,31.7912
673,2021/5/14,11:12,41-47.34N,141-35.43E,178,8.035,31.6449
674,2021/5/14,11:13,41-47.06N,141-35.44E,178,7.791,31.5605
675,2021/5/14,11:14,41-46.78N,141-35.45E,178,7.653,31.5761
676,2021/5/14,11:15,41-46.50N,141-35.45E,178,7.638,31.6489
677,2021/5/14,11:16,41-46.21N,141-35.46E,178,7.64,31.7203
678,2021/5/14,11:17,41-45.93N,141-35.47E,178,7.559,31.7511
679,2021/5/14,11:18,41-45.63N,141-35.49E,178,7.328,31.7727
680,2021/5/14,11:19,41-45.35N,141-35.49E,178,7.124,31.7882
681,2021/5/14,11:20,41-45.07N,141-35.50E,178,6.953,31.9117
682,2021/5/14,11:21,41-44.77N,141-35.52E,177,7.311,32.0144
683,2021/5/14,11:22,41-44.49N,141-35.53E,178,7.499,32.0099
684,2021/5/14,11:23,41-44.21N,141-35.54E,178,7.866,31.9165
685,2021/5/14,11:24,41-43.93N,141-35.55E,177,8.118,31.8005
686,2021/5/14,11:25,41-43.65N,141-35.57E,177,8.428,31.6719
687,2021/5/14,11:26,41-43.36N,141-35.58E,178,8.581,31.5383
688,2021/5/14,11:27,41-43.08N,141-35.58E,179,9.191,31.417
689,2021/5/14,11:28,41-42.79N,141-35.58E,179,9.76,31.3266
690,2021/5/14,11:29,41-42.51N,141-35.59E,179,9.766,31.1459
691,2021/5/14,11:30,41-42.23N,141-35.59E,179,9.381,30.9595
692,2021/5/14,11:31,41-41.94N,141-35.59E,178,8.511,30.9636
693,2021/5/14,11:32,41-41.66N,141-35.60E,179,7.576,31.127
694,2021/5/14,11:33,41-41.37N,141-35.60E,178,7.121,31.4859
695,2021/5/14,11:34,41-41.09N,141-35.61E,178,7.56,31.9073
696,2021/5/14,11:35,41-40.80N,141-35.62E,177,7.693,32.1375
697,2021/5/14,11:36,41-40.50N,141-35.64E,176,7.791,32.0793
698,2021/5/14,11:37,41-40.19N,141-35.67E,176,7.611,32.0288
699,2021/5/14,11:38,41-39.89N,141-35.69E,177,8.958,31.9723
700,2021/5/14,11:39,41-39.65N,141-35.69E,181,8.157,31.7869
701,2021/5/14,11:40,41-39.37N,141-35.68E,182,8.948,31.6738
702,2021/5/14,11:41,41-39.08N,141-35.65E,183,8.498,31.6765
703,2021/5/14,11:42,41-38.81N,141-35.63E,183,8.384,31.51
704,2021/5/14,11:43,41-38.52N,141-35.61E,183,8.878,31.5765
705,2021/5/14,11:44,41-38.24N,141-35.58E,183,8.71,31.5845
706,2021/5/14,11:45,41-37.95N,141-35.55E,184,8.419,31.4847
707,2021/5/14,11:46,41-37.66N,141-35.52E,183,7.99,31.5547
708,2021/5/14,11:47,41-37.37N,141-35.50E,183,8.267,31.6487
709,2021/5/14,11:48,41-37.04N,141-35.47E,183,8.129,31.8163
710,2021/5/14,11:49,41-36.76N,141-35.45E,183,8.393,31.8443
711,2021/5/14,11:50,41-36.47N,141-35.42E,183,8.481,31.8298
712,2021/5/14,11:51,41-36.18N,141-35.40E,183,8.477,31.7682
713,2021/5/14,11:52,41-35.91N,141-35.37E,184,8.444,31.7203
714,2021/5/14,11:53,41-35.63N,141-35.35E,183,8.38,31.7118
715,2021/5/14,11:54,41-35.39N,141-35.33E,184,8.326,31.7322
716,2021/5/14,11:55,41-35.09N,141-35.30E,183,8.311,31.7485
717,2021/5/14,11:56,41-34.76N,141-35.26E,183,8.294,31.7862
718,2021/5/14,11:57,41-34.47N,141-35.24E,184,8.324,31.8104
719,2021/5/14,11:58,41-34.22N,141-35.21E,184,8.356,31.8049
720,2021/5/14,11:59,41-33.95N,141-35.19E,184,8.43,31.7965
721,2021/5/14,12:00,41-33.66N,141-35.15E,184,8.42,31.7871
722,2021/5/14,12:01,41-33.37N,141-35.12E,184,8.587,31.7313
723,2021/5/14,12:02,41-33.08N,141-35.09E,184,8.252,31.7352
724,2021/5/14,12:03,41-32.74N,141-35.06E,183,8.362,31.7425
725,2021/5/14,12:04,41-32.45N,141-35.03E,184,8.289,31.8061
726,2021/5/14,12:05,41-32.16N,141-35.00E,184,8.381,31.8204
727,2021/5/14,12:06,41-31.87N,141-34.97E,184,8.435,31.84
728,2021/5/14,12:07,41-31.58N,141-34.94E,184,8.661,31.8392
729,2021/5/14,12:08,41-31.29N,141-34.91E,184,8.757,31.7628
730,2021/5/14,12:09,41-31.00N,141-34.87E,184,8.99,31.6926
731,2021/5/14,12:10,41-30.71N,141-34.84E,183,9.216,31.6216
732,2021/5/14,12:11,41-30.42N,141-34.83E,182,9.285,31.5668
733,2021/5/14,12:12,41-30.13N,141-34.81E,182,9.166,31.491
734,2021/5/14,12:13,41-29.83N,141-34.80E,181,8.96,31.5081
735,2021/5/14,12:14,41-29.54N,141-34.78E,182,9.067,31.5438
736,2021/5/14,12:15,41-29.25N,141-34.77E,181,9.167,31.6117
737,2021/5/14,12:16,41-28.95N,141-34.76E,181,9.039,31.6043
738,2021/5/14,12:17,41-28.65N,141-34.74E,182,8.922,31.6255
739,2021/5/14,12:18,41-28.36N,141-34.72E,182,8.778,31.6695
740,2021/5/14,12:19,41-28.06N,141-34.70E,182,8.818,31.714
741,2021/5/14,12:20,41-27.76N,141-34.68E,183,8.987,31.7838
742,2021/5/14,12:21,41-27.46N,141-34.65E,183,9.006,31.808
743,2021/5/14,12:22,41-27.17N,141-34.67E,172,9.462,31.7769
744,2021/5/14,12:23,41-26.90N,141-34.80E,160,10.301,31.7328
745,2021/5/14,12:24,41-26.64N,141-34.93E,160,10.498,31.5037
746,2021/5/14,12:25,41-26.38N,141-35.06E,160,10.545,31.307
747,2021/5/14,12:26,41-26.10N,141-35.19E,160,10.594,31.1999
748,2021/5/14,12:27,41-25.84N,141-35.31E,161,10.597,31.175
749,2021/5/14,12:28,41-25.57N,141-35.41E,165,10.651,31.2033
750,2021/5/14,12:29,41-25.28N,141-35.50E,164,10.777,31.2153
751,2021/5/14,12:30,41-25.02N,141-35.62E,162,10.858,31.2319
752,2021/5/14,12:31,41-24.74N,141-35.75E,160,10.937,31.2412
753,2021/5/14,12:32,41-24.47N,141-35.89E,160,10.966,31.2523
754,2021/5/14,12:33,41-24.24N,141-36.02E,160,11.04,31.2741
755,2021/5/14,12:34,41-23.95N,141-36.14E,161,11.081,31.2875
756,2021/5/14,12:35,41-23.67N,141-36.27E,161,11.133,31.3056
757,2021/5/14,12:36,41-23.35N,141-36.41E,163,11.196,31.3234
758,2021/5/14,12:37,41-23.07N,141-36.52E,163,11.21,31.347
759,2021/5/14,12:38,41-22.79N,141-36.64E,163,11.279,31.3597
760,2021/5/14,12:39,41-22.50N,141-36.75E,164,11.335,31.3877
761,2021/5/14,12:40,41-22.22N,141-36.87E,164,11.268,31.4044
762,2021/5/14,12:41,41-21.94N,141-36.97E,164,11.261,31.4263
763,2021/5/14,12:42,41-21.67N,141-37.09E,164,11.28,31.474
764,2021/5/14,12:43,41-21.40N,141-37.19E,163,11.297,31.5024
765,2021/5/14,12:44,41-21.12N,141-37.31E,163,11.218,31.5228
766,2021/5/14,12:45,41-20.90N,141-37.41E,162,11.087,31.5646
767,2021/5/14,12:46,41-20.62N,141-37.52E,163,11.068,31.6229
768,2021/5/14,12:47,41-20.32N,141-37.64E,164,11.023,31.6735
769,2021/5/14,12:48,41-20.08N,141-37.73E,163,11.027,31.7237
770,2021/5/14,12:49,41-19.80N,141-37.84E,163,11.048,31.7554
771,2021/5/14,12:50,41-19.54N,141-37.94E,162,10.893,31.7757
772,2021/5/14,12:51,41-19.26N,141-38.06E,162,10.989,31.7812
773,2021/5/14,12:52,41-19.00N,141-38.16E,163,10.923,31.8378
774,2021/5/14,12:53,41-18.73N,141-38.27E,163,10.814,31.8334
775,2021/5/14,12:54,41-18.45N,141-38.37E,164,10.5,31.8667
776,2021/5/14,12:55,41-18.19N,141-38.46E,164,10.526,31.9461
777,2021/5/14,12:56,41-17.92N,141-38.57E,164,10.818,32.0353
778,2021/5/14,12:57,41-17.66N,141-38.66E,165,10.679,32.0137
779,2021/5/14,12:58,41-17.39N,141-38.75E,165,10.721,31.9678
780,2021/5/14,12:59,41-17.12N,141-38.84E,165,10.872,31.9854
781,2021/5/14,13:00,41-16.85N,141-38.92E,166,10.899,31.9511
782,2021/5/14,13:01,41-16.59N,141-39.02E,165,11.007,31.9018
783,2021/5/14,13:02,41-16.32N,141-39.10E,166,11.255,31.8796
784,2021/5/14,13:03,41-16.06N,141-39.18E,166,11.193,31.8367
785,2021/5/14,13:04,41-15.79N,141-39.27E,166,11.146,31.7777
786,2021/5/14,13:05,41-15.53N,141-39.35E,165,10.993,31.7806
787,2021/5/14,13:06,41-15.27N,141-39.44E,165,11.035,31.8158
788,2021/5/14,13:07,41-15.00N,141-39.53E,165,10.907,31.8707
789,2021/5/14,13:08,41-14.74N,141-39.62E,165,10.944,31.8979
790,2021/5/14,13:09,41-14.47N,141-39.71E,165,10.822,31.9209
791,2021/5/14,13:10,41-14.21N,141-39.79E,165,10.649,31.9737
792,2021/5/14,13:11,41-13.94N,141-39.88E,165,10.716,32.012
793,2021/5/14,13:12,41-13.69N,141-39.97E,165,10.875,32.0489
794,2021/5/14,13:13,41-13.43N,141-40.05E,166,11.05,32.044
795,2021/5/14,13:14,41-13.16N,141-40.14E,165,11.118,32.0017
796,2021/5/14,13:15,41-12.91N,141-40.22E,165,11.053,31.9447
797,2021/5/14,13:16,41-12.65N,141-40.31E,165,11.005,31.9142
798,2021/5/14,13:17,41-12.40N,141-40.40E,165,11.084,31.9293
799,2021/5/14,13:18,41-12.14N,141-40.48E,166,11.215,31.9532
800,2021/5/14,13:19,41-11.88N,141-40.57E,165,11.184,31.9233
801,2021/5/14,13:20,41-11.63N,141-40.66E,165,11.219,31.9027
802,2021/5/14,13:21,41-11.37N,141-40.75E,164,11.09,31.8993
803,2021/5/14,13:22,41-11.11N,141-40.84E,164,10.986,31.9169
804,2021/5/14,13:23,41-10.86N,141-40.94E,164,10.969,31.9842
805,2021/5/14,13:24,41-10.60N,141-41.03E,164,11.018,32.0289
806,2021/5/14,13:25,41-10.34N,141-41.13E,164,11.007,32.0391
807,2021/5/14,13:26,41-10.08N,141-41.22E,164,11.044,32.0418
808,2021/5/14,13:27,41-09.83N,141-41.32E,164,10.983,32.0503
809,2021/5/14,13:28,41-09.57N,141-41.41E,164,10.887,32.0428
810,2021/5/14,13:29,41-09.32N,141-41.51E,164,10.805,32.0693
811,2021/5/14,13:30,41-09.06N,141-41.60E,164,10.882,32.1285
812,2021/5/14,13:31,41-08.81N,141-41.69E,165,10.876,32.1206
813,2021/5/14,13:32,41-08.55N,141-41.77E,166,10.873,32.1216
814,2021/5/14,13:33,41-08.30N,141-41.85E,166,10.869,32.1237
815,2021/5/14,13:34,41-08.04N,141-41.94E,166,10.832,32.1316
816,2021/5/14,13:35,41-07.79N,141-42.02E,166,10.813,32.137
817,2021/5/14,13:36,41-07.54N,141-42.10E,166,10.791,32.141
818,2021/5/14,13:37,41-07.28N,141-42.18E,165,10.807,32.1427
819,2021/5/14,13:38,41-07.03N,141-42.26E,166,10.883,32.1573
820,2021/5/14,13:39,41-06.77N,141-42.35E,166,10.952,32.1522
821,2021/5/14,13:40,41-06.51N,141-42.43E,166,10.994,32.1385
822,2021/5/14,13:41,41-06.26N,141-42.51E,165,10.978,32.1112
823,2021/5/14,13:42,41-06.00N,141-42.60E,166,10.726,32.0941
824,2021/5/14,13:43,41-05.74N,141-42.68E,166,10.585,32.1219
825,2021/5/14,13:44,41-05.48N,141-42.76E,167,10.735,32.1805
826,2021/5/14,13:45,41-05.23N,141-42.83E,166,10.711,32.2285
827,2021/5/14,13:46,41-04.97N,141-42.91E,167,10.55,32.219
828,2021/5/14,13:47,41-04.71N,141-42.99E,167,10.055,32.2408
829,2021/5/14,13:48,41-04.46N,141-43.06E,167,9.978,32.311
830,2021/5/14,13:49,41-04.20N,141-43.14E,167,9.959,32.4643
831,2021/5/14,13:50,41-03.95N,141-43.21E,167,9.799,32.505
832,2021/5/14,13:51,41-03.69N,141-43.29E,167,9.774,32.5412
833,2021/5/14,13:52,41-03.43N,141-43.36E,167,9.742,32.5719
834,2021/5/14,13:53,41-03.18N,141-43.44E,167,9.832,32.5751
835,2021/5/14,13:54,41-02.92N,141-43.51E,167,9.956,32.572
836,2021/5/14,13:55,41-02.67N,141-43.58E,167,10,32.5232
837,2021/5/14,13:56,41-02.42N,141-43.65E,167,9.988,32.4562
838,2021/5/14,13:57,41-02.16N,141-43.73E,167,10.067,32.4174
839,2021/5/14,13:58,41-01.91N,141-43.80E,167,10.099,32.3892
840,2021/5/14,13:59,41-01.64N,141-43.88E,167,10.133,32.3587
841,2021/5/14,14:00,41-01.39N,141-43.95E,168,10.122,32.3365
842,2021/5/14,14:01,41-01.13N,141-44.02E,168,10.127,32.3168
843,2021/5/14,14:02,41-00.86N,141-44.09E,168,10.322,32.3087
844,2021/5/14,14:03,41-00.58N,141-44.17E,168,10.666,32.3007
845,2021/5/14,14:04,41-00.30N,141-44.24E,168,10.799,32.2116
846,2021/5/14,14:05,41-00.04N,141-44.31E,168,10.619,32.1103
847,2021/5/14,14:06,40-59.78N,141-44.38E,168,10.314,32.0567
848,2021/5/14,14:07,40-59.52N,141-44.45E,168,10.184,32.1303
849,2021/5/14,14:08,40-59.27N,141-44.52E,168,10.165,32.2262
850,2021/5/14,14:09,40-59.01N,141-44.59E,168,10.197,32.3044
851,2021/5/14,14:10,40-58.76N,141-44.66E,168,10.156,32.3295
852,2021/5/14,14:11,40-58.50N,141-44.74E,167,10.15,32.342
853,2021/5/14,14:12,40-58.25N,141-44.80E,168,10.041,32.3452
854,2021/5/14,14:13,40-58.01N,141-44.87E,168,10,32.3635
855,2021/5/14,14:14,40-57.75N,141-44.94E,168,10.152,32.4052
856,2021/5/14,14:15,40-57.45N,141-45.02E,168,10.247,32.4123
857,2021/5/14,14:16,40-57.18N,141-45.09E,168,10.285,32.367
858,2021/5/14,14:17,40-56.92N,141-45.16E,168,10.295,32.3201
859,2021/5/14,14:18,40-56.66N,141-45.23E,168,10.378,32.3026
860,2021/5/14,14:19,40-56.38N,141-45.29E,168,10.339,32.2968
861,2021/5/14,14:20,40-56.12N,141-45.36E,168,10.205,32.2808
862,2021/5/14,14:21,40-55.85N,141-45.43E,169,10.141,32.3018
863,2021/5/14,14:22,40-55.58N,141-45.50E,169,10.082,32.3322
864,2021/5/14,14:23,40-55.33N,141-45.57E,167,9.885,32.3726
865,2021/5/14,14:24,40-55.06N,141-45.65E,167,9.902,32.4101
866,2021/5/14,14:25,40-54.80N,141-45.73E,167,10.071,32.4886
867,2021/5/14,14:26,40-54.53N,141-45.81E,166,10.285,32.4768
868,2021/5/14,14:27,40-54.26N,141-45.90E,166,10.313,32.4111
869,2021/5/14,14:28,40-53.99N,141-45.99E,166,10.476,32.3446
870,2021/5/14,14:29,40-53.76N,141-46.05E,168,10.522,32.3031
871,2021/5/14,14:30,40-53.50N,141-46.11E,169,10.554,32.2602
872,2021/5/14,14:31,40-53.19N,141-46.19E,169,10.605,32.225
873,2021/5/14,14:32,40-52.93N,141-46.26E,168,10.674,32.224
874,2021/5/14,14:33,40-52.67N,141-46.33E,168,10.672,32.2148
875,2021/5/14,14:34,40-52.41N,141-46.39E,168,10.786,32.2103
876,2021/5/14,14:35,40-52.15N,141-46.47E,168,10.919,32.2127
877,2021/5/14,14:36,40-51.89N,141-46.54E,167,11.092,32.1804
878,2021/5/14,14:37,40-51.62N,141-46.62E,167,11.145,32.1291
879,2021/5/14,14:38,40-51.35N,141-46.70E,167,11.14,32.0984
880,2021/5/14,14:39,40-51.09N,141-46.77E,168,11.164,32.0989
881,2021/5/14,14:40,40-50.84N,141-46.84E,168,11.214,32.1093
882,2021/5/14,14:41,40-50.59N,141-46.91E,167,11.161,32.1087
883,2021/5/14,14:42,40-50.32N,141-46.99E,167,11.217,32.1176
884,2021/5/14,14:43,40-50.01N,141-47.08E,167,11.246,32.1446
885,2021/5/14,14:44,40-49.74N,141-47.15E,167,11.246,32.1705
886,2021/5/14,14:45,40-49.47N,141-47.23E,167,11.319,32.178
887,2021/5/14,14:46,40-49.20N,141-47.31E,167,11.414,32.1931
888,2021/5/14,14:47,40-48.92N,141-47.39E,168,11.445,32.1809
889,2021/5/14,14:48,40-48.65N,141-47.46E,168,11.439,32.1694
890,2021/5/14,14:49,40-48.38N,141-47.54E,168,11.423,32.1824
891,2021/5/14,14:50,40-48.10N,141-47.61E,168,11.297,32.1998
892,2021/5/14,14:51,40-47.83N,141-47.69E,168,11.079,32.2425
893,2021/5/14,14:52,40-47.59N,141-47.75E,168,10.982,32.3098